[[{"header":{"parameterUnit":"m.s-1","parameterCategory":1,"la1":30.2992,"la2":30.254,"lo1":-89.0895,"lo2":-89.0443,"dy":0.0025,"dx":0.0025,"nx":19,"ny":19,"refTime":"2026-05-19T09:00:00:Z","depth":0,"parameterNumber":2,"parameterNumberName":"U-component_of_WINDS"},"data":[0,0,0,-5.3341,-5.3342,-5.3395,-5.3395,-5.3492,-5.3493,0,0,0,0,0,0,0,0,0,0,0,-5.3344,-5.3345,-5.334,-5.3342,-5.3395,-5.3395,-5.3492,-5.3493,0,0,0,0,0,0,0,0,0,0,0,-5.3343,-5.3344,-5.3346,-5.3343,-5.3395,-5.3395,-5.3492,-5.3441,0,0,0,0,0,0,0,0,0,0,-5.3385,-5.3406,-5.3344,-5.3346,-5.3343,-5.3395,-5.3395,-5.3438,-5.3444,-5.3481,0,-5.352,0,-5.3508,-5.3502,-5.3502,0,0,0,-5.3328,-5.3401,-5.3398,-5.3346,-5.3344,-5.3395,-5.3367,-5.3441,-5.3448,-5.3489,-5.3521,-5.3523,-5.351,-5.3503,-5.3503,-5.3765,-5.3767,0,0,-5.3325,-5.3363,-5.3394,-5.3404,-5.3399,-5.3366,-5.3369,-5.3445,-5.3481,-5.3521,-5.3525,-5.3512,-5.3503,-5.3504,-5.3764,-5.3766,0,0,0,-5.3326,-5.3361,-5.3356,-5.3401,-5.3408,-5.3368,-5.3372,-5.3478,-5.3473,-5.3526,-5.3513,-5.3504,-5.3506,-5.3762,-5.3764,-5.3894,0,0,0,-5.3324,-5.3362,-5.3356,-5.3379,-5.3407,-5.3444,-5.3403,-5.3468,-5.3475,-5.3512,-5.3504,-5.3507,-5.3759,-5.3763,-5.3886,-5.3949,0,0,0,-5.3334,-5.3363,-5.3377,-5.3381,-5.3406,-5.3442,-5.3441,-5.3468,-5.3468,-5.3502,-5.3507,-5.3758,-5.3762,-5.3879,-5.3936,-5.4028,0,0,0,-5.3354,-5.3491,-5.338,-5.3527,-5.3406,-5.3523,-5.344,-5.3525,-5.357,-5.3505,-5.376,-5.3764,-5.3876,-5.3929,-5.402,-5.4111,-5.4152,0,0,-5.3548,-5.3516,-5.36,-5.3501,-5.3648,-5.3511,-5.3676,-5.3681,-5.365,-5.3729,-5.3734,-5.3889,-5.3936,-5.4026,-5.4375,-5.4408,0,0,0,-5.3673,-5.3734,-5.3765,-5.381,-5.3819,-5.383,-5.3807,-5.3809,-5.3874,-5.3699,-5.3946,-5.3973,-5.4024,-5.4066,-5.4094,-5.4135,-5.3785,-5.3785,-5.3784,-5.3999,-5.3953,-5.4088,-5.4049,-5.4094,-5.4069,-5.4101,-5.4099,-5.4038,-5.4098,-5.412,-5.4338,-5.4388,-5.4408,-5.4452,-5.4166,-5.4166,-5.4167,-5.4167,-5.4277,-5.4354,-5.4272,-5.4374,-5.4324,-5.4409,-5.4391,-5.4345,-5.4416,-5.4317,-5.436,-5.4254,-5.4447,-5.4482,-5.4176,-5.4175,-5.4173,-5.4173,-5.4172,-5.4483,-5.4512,-5.4514,-5.4575,-5.4628,-5.4583,-5.4656,-5.4608,-5.4563,-5.4606,-5.4624,-5.4622,-5.4612,-5.4618,-5.4619,-5.462,-5.4621,-5.4621,-5.4622,-5.4696,-5.4694,-5.4761,-5.4783,-5.4806,-5.4831,-5.4809,-5.483,-5.4841,-5.48,-5.48,-5.4733,-5.4475,-5.441,-5.4633,-5.4631,-5.463,-5.4629,-5.4628,-5.4991,-5.4917,-5.5021,-5.5045,-5.5067,-5.5122,-5.5061,-5.5109,-5.512,-5.5157,-5.5082,-5.49,-5.4863,-5.484,-5.4786,-5.5092,-5.5092,-5.5092,-5.5092,-5.5164,-5.5142,-5.5237,-5.5278,-5.5313,-5.5269,-5.5388,-5.5373,-5.5345,-5.5348,-5.5298,-5.5223,-5.5202,-5.5177,-5.5147,-5.5095,-5.5474,-5.5474,-5.5475,-5.5342,-5.5321,-5.5431,-5.5405,-5.5419,-5.5432,-5.5541,-5.5591,-5.5544,-5.5489,-5.535,-5.5334,-5.5212,-5.5175,-5.5114,-5.5068,-5.4973,0,0]},{"header":{"parameterUnit":"m.s-1","parameterCategory":1,"la1":30.2992,"la2":30.254,"lo1":-89.0895,"lo2":-89.0443,"dy":0.0025,"dx":0.0025,"nx":19,"ny":19,"refTime":"2026-05-19T09:00:00:Z","depth":0,"parameterNumber":3,"parameterNumberName":"V-component_of_WINDS"},"data":[0,0,0,1.3997,1.3996,1.3992,1.3992,1.3988,1.3988,0,0,0,0,0,0,0,0,0,0,0,1.3999,1.3999,1.3997,1.3996,1.3992,1.3992,1.3988,1.3988,0,0,0,0,0,0,0,0,0,0,0,1.3999,1.3999,1.3999,1.3996,1.3992,1.3992,1.3988,1.399,0,0,0,0,0,0,0,0,0,0,1.3994,1.3998,1.3999,1.3999,1.3996,1.3992,1.3992,1.399,1.399,1.399,0,1.3992,0,1.399,1.3988,1.3988,0,0,0,1.3995,1.3998,1.3996,1.3999,1.3996,1.3992,1.3994,1.399,1.399,1.399,1.3992,1.3992,1.399,1.3988,1.3988,1.3998,1.3998,0,0,1.3995,1.3999,1.3996,1.3996,1.3998,1.3994,1.3994,1.399,1.3992,1.3992,1.3991,1.399,1.3988,1.3988,1.3998,1.3998,0,0,0,1.3997,1.3999,1.3997,1.3996,1.3996,1.3994,1.3994,1.3992,1.3991,1.3991,1.399,1.3988,1.3988,1.3998,1.3998,1.4008,0,0,0,1.3997,1.4,1.3997,1.3999,1.3996,1.3994,1.3995,1.3991,1.3991,1.399,1.3988,1.3988,1.3997,1.3998,1.4007,1.4012,0,0,0,1.3999,1.4,1.4,1.3999,1.3998,1.3994,1.3993,1.3991,1.399,1.3988,1.3988,1.3997,1.3998,1.4007,1.4011,1.4016,0,0,0,1.4001,1.4007,1.4,1.4007,1.3998,1.4001,1.3993,1.3994,1.3994,1.3988,1.3997,1.3998,1.4007,1.401,1.4016,1.4022,1.4025,0,0,1.4011,1.4009,1.4012,1.4006,1.4011,1.4001,1.4008,1.4003,1.3998,1.3998,1.3998,1.4008,1.4011,1.4016,1.4039,1.4041,0,0,0,1.4016,1.4019,1.402,1.402,1.4019,1.4017,1.4012,1.401,1.4011,1.3999,1.4011,1.4013,1.4016,1.4018,1.402,1.4023,1.3999,1.3999,1.3999,1.4033,1.403,1.4036,1.4033,1.4034,1.4029,1.403,1.4027,1.4021,1.4024,1.4023,1.4038,1.4041,1.4043,1.4046,1.4026,1.4026,1.4026,1.4027,1.4047,1.405,1.4046,1.405,1.4046,1.4049,1.4046,1.4043,1.4045,1.4037,1.404,1.4032,1.4045,1.4048,1.4027,1.4027,1.4027,1.4027,1.4027,1.4057,1.4058,1.4059,1.4061,1.4064,1.406,1.4063,1.4059,1.4055,1.4058,1.4058,1.4057,1.4057,1.4058,1.4058,1.4058,1.4058,1.4058,1.4058,1.4068,1.4068,1.4072,1.4073,1.4074,1.4075,1.4073,1.4074,1.4074,1.407,1.407,1.4065,1.4048,1.4044,1.4059,1.4059,1.4059,1.4059,1.4059,1.4082,1.4079,1.4086,1.4087,1.4089,1.4093,1.4089,1.4091,1.4091,1.4094,1.4089,1.4077,1.4073,1.4072,1.4068,1.4089,1.4089,1.4089,1.4089,1.4091,1.409,1.4097,1.4101,1.4103,1.4101,1.4109,1.4108,1.4106,1.4106,1.4103,1.4098,1.4096,1.4094,1.4092,1.4089,1.4114,1.4114,1.4114,1.41,1.41,1.4107,1.4108,1.4109,1.4111,1.4118,1.4122,1.4119,1.4115,1.4106,1.4105,1.4097,1.4095,1.4089,1.4086,1.408,0,0]}]]